[[{"header":{"parameterUnit":"m.s-1","parameterCategory":1,"la1":30.2991,"la2":30.254,"lo1":-89.0895,"lo2":-89.0444,"dy":0.0017,"dx":0.0017,"nx":28,"ny":28,"refTime":"2026-02-07T09:00:00:Z","depth":0,"parameterNumber":2,"parameterNumberName":"U-component_of_WINDS"},"data":[0,0,0,0,0,0,0,0,0,0,0,0,0,0,0,0,0,0,0,0,0,0,0,0,0,0,0,0,0,0,0,0,0,0,0,0,0,0,0,0,0,0,0,0,0,0,0,0,0,0,0,0,0,0,0,0,0,0,-1.1388,-1.1387,0,-1.1347,-1.1347,-1.1346,-1.1299,-1.1298,-1.1297,-1.1296,-1.1256,-1.1255,-1.1255,0,0,0,0,0,0,0,0,0,0,0,0,0,-1.1423,-1.1423,-1.1388,-1.1387,-1.1387,-1.1347,-1.1347,-1.1346,-1.1299,-1.1298,-1.1297,-1.1296,-1.1256,-1.1255,-1.1255,0,0,0,0,0,0,0,0,0,0,0,0,0,-1.1398,-1.1423,-1.1388,-1.1358,-1.1355,-1.1348,-1.1347,-1.1346,-1.1299,-1.1298,-1.1297,-1.1296,-1.1256,-1.1255,-1.1255,-1.1273,0,0,-1.1253,-1.1253,0,0,0,0,0,0,0,0,-1.14,-1.1397,-1.1363,-1.136,-1.1357,-1.1327,-1.1344,-1.1322,-1.1299,-1.132,-1.1296,-1.1295,-1.128,-1.1278,-1.1273,-1.1271,-1.127,-1.1253,-1.1253,-1.1252,-1.1252,0,0,0,0,0,0,0,-1.1401,-1.1398,-1.1372,-1.1363,-1.1359,-1.1347,-1.1342,-1.134,-1.1307,-1.1318,-1.1315,-1.1311,-1.1278,-1.1273,-1.1271,-1.1269,-1.1253,-1.1252,-1.1252,-1.1252,-1.1282,-1.1283,0,0,0,0,0,0,-1.1408,-1.14,-1.1373,-1.137,-1.1376,-1.1347,-1.1342,-1.1338,-1.1307,-1.1301,-1.1312,-1.1309,-1.1275,-1.1272,-1.127,-1.129,-1.1252,-1.1252,-1.1251,-1.128,-1.1282,-1.1283,0,0,0,0,0,0,-1.1408,-1.1406,-1.1375,-1.1384,-1.1379,-1.1348,-1.1343,-1.1337,-1.1332,-1.1302,-1.1296,-1.1312,-1.1274,-1.127,-1.1273,-1.1288,-1.1251,-1.1251,-1.1279,-1.1281,-1.1282,-1.133,0,0,0,0,0,0,-1.141,-1.1406,-1.1413,-1.1385,-1.1379,-1.1379,-1.1344,-1.1337,-1.1331,-1.1327,-1.1301,-1.1296,-1.1273,-1.1274,-1.1272,-1.1286,-1.125,-1.1278,-1.128,-1.1282,-1.1327,-1.1334,-1.1339,0,0,0,0,0,-1.1411,-1.1428,-1.1413,-1.141,-1.1387,-1.1379,-1.1376,-1.1349,-1.1333,-1.1339,-1.132,-1.1296,-1.1286,-1.1275,-1.1272,-1.1286,-1.1277,-1.1279,-1.1282,-1.1325,-1.1332,-1.1339,0,0,0,0,0,0,-1.1459,-1.1424,-1.1407,-1.1415,-1.1401,-1.1371,-1.1379,-1.1358,-1.1348,-1.1345,-1.1312,-1.1306,-1.1313,-1.1299,-1.1287,-1.1303,-1.1278,-1.128,-1.1312,-1.1319,-1.1324,-1.1328,-1.125,0,0,0,0,0,-1.147,-1.1467,-1.1437,-1.1447,-1.144,-1.1411,-1.1407,-1.1387,-1.1371,-1.1365,-1.1345,-1.133,-1.1324,-1.132,-1.1312,-1.1325,-1.1319,-1.1333,-1.1339,-1.1344,-1.1347,-1.1353,-1.136,-1.1292,-1.1292,-1.1291,0,0,-1.1494,-1.1474,-1.1474,-1.1456,-1.1442,-1.144,-1.1406,-1.1405,-1.1403,-1.1364,-1.1366,-1.1351,-1.1332,-1.134,-1.1342,-1.1329,-1.1364,-1.1347,-1.1351,-1.1351,-1.1357,-1.1363,-1.1369,-1.1293,-1.1293,-1.1293,0,0,-1.1536,-1.1521,-1.1528,-1.1515,-1.1495,-1.1475,-1.1477,-1.145,-1.1439,-1.144,-1.1411,-1.1408,-1.1397,-1.1385,-1.1378,-1.1416,-1.1394,-1.1414,-1.1444,-1.1451,-1.1456,-1.1461,-1.1476,-1.1481,-1.1416,-1.1416,-1.1416,0,-1.1568,-1.1564,-1.1534,-1.1535,-1.1528,-1.1492,-1.15,-1.1488,-1.1467,-1.1463,-1.1448,-1.1434,-1.1419,-1.1424,-1.1433,-1.1428,-1.1429,-1.1417,-1.1458,-1.1462,-1.1466,-1.148,-1.1485,-1.1419,-1.1419,-1.1418,-1.1418,0,-1.1605,-1.1602,-1.161,-1.1591,-1.1584,-1.1588,-1.1559,-1.1557,-1.1538,-1.152,-1.1521,-1.1501,-1.1489,-1.1489,-1.147,-1.1491,-1.1484,-1.1464,-1.1438,-1.1476,-1.1488,-1.1493,-1.1423,-1.1422,-1.1421,-1.142,0,0,-1.1677,-1.164,-1.1644,-1.1635,-1.161,-1.1607,-1.161,-1.1598,-1.1597,-1.1583,-1.1585,-1.1576,-1.1558,-1.1549,-1.1529,-1.1534,-1.1567,-1.1514,-1.1513,-1.1525,-1.159,-1.1606,-1.1613,-1.1552,-1.1553,-1.1553,-1.1592,0,-1.1715,-1.1718,-1.1691,-1.1701,-1.1699,-1.1665,-1.1667,-1.1652,-1.1635,-1.1631,-1.1612,-1.1607,-1.1583,-1.1577,-1.1581,-1.1562,-1.158,-1.1559,-1.1554,-1.1554,-1.1561,-1.1619,-1.1636,-1.1673,-1.1596,-1.1597,-1.1598,0,-1.1761,-1.175,-1.176,-1.1735,-1.1733,-1.1736,-1.1723,-1.1719,-1.1701,-1.1688,-1.1679,-1.1656,-1.1657,-1.1632,-1.1633,-1.1619,-1.1616,-1.1606,-1.1607,-1.1606,-1.1579,-1.1621,-1.1684,-1.1691,-1.1605,-1.1604,-1.1604,0,-1.1814,-1.1802,-1.1806,-1.1799,-1.177,-1.1772,-1.176,-1.1741,-1.1736,-1.1725,-1.1721,-1.171,-1.1704,-1.1697,-1.1671,-1.1655,-1.1676,-1.1648,-1.1666,-1.1667,-1.1673,-1.1673,-1.1738,-1.1669,-1.1668,-1.1668,-1.1668,0,-1.1861,-1.1869,-1.183,-1.1833,-1.184,-1.1809,-1.1818,-1.1802,-1.1786,-1.1785,-1.1754,-1.1755,-1.172,-1.1717,-1.1696,-1.1701,-1.1698,-1.1689,-1.1684,-1.1692,-1.1694,-1.1691,-1.1688,-1.167,-1.1669,-1.1669,-1.1669,0,-1.1923,-1.1897,-1.1899,-1.1871,-1.1864,-1.1871,-1.1847,-1.1849,-1.183,-1.1829,-1.1828,-1.1798,-1.1792,-1.1765,-1.1753,-1.1739,-1.1752,-1.174,-1.1758,-1.1755,-1.1775,-1.1774,-1.184,-1.1848,-1.1773,-1.1774,-1.1774,0,-1.1955,-1.196,-1.1932,-1.193,-1.1919,-1.1915,-1.191,-1.1879,-1.1875,-1.1855,-1.1859,-1.1851,-1.1843,-1.1835,-1.1813,-1.1803,-1.1793,-1.1817,-1.1791,-1.18,-1.1794,-1.1795,-1.1796,-1.1823,-1.1824,-1.1824,-1.1825,0,-1.2016,-1.2003,-1.1996,-1.1985,-1.1979,-1.1969,-1.1956,-1.1956,-1.1922,-1.1919,-1.1912,-1.1906,-1.1894,-1.1886,-1.1873,-1.186,-1.1838,-1.1833,-1.1837,-1.1847,-1.1857,-1.1853,-1.1774,-1.1832,-1.1831,-1.1831,-1.183,-1.183,-1.2064,-1.2068,-1.2049,-1.2042,-1.203,-1.2019,-1.202,-1.2001,-1.1995,-1.1983,-1.1964,-1.1961,-1.1943,-1.1923,-1.1912,-1.1909,-1.1896,-1.1902,-1.1903,-1.1905,-1.191,-1.1856,-1.1907,-1.1906,-1.1906,-1.1906,-1.1906,0,-1.2124,-1.2111,-1.2105,-1.2089,-1.2084,-1.2062,-1.2048,-1.2045,-1.2042,-1.2027,-1.202,-1.2013,-1.2006,-1.1982,-1.1973,-1.1975,-1.1964,-1.1973,-1.1974,-1.1971,-1.1922,-1.192,-1.1982,-1.1982,-1.1982,-1.1982,-1.1982,-1.1982,-1.2155,-1.216,-1.2145,-1.2143,-1.2129,-1.2125,-1.2119,-1.2109,-1.2097,-1.2091,-1.2085,-1.2069,-1.2051,-1.204,-1.2032,-1.2025,-1.2024,-1.2037,-1.2027,-1.1982,-1.1975,-1.1968,-1.1966,-1.2037,-1.2037,-1.2077,-1.2077,-1.2078]},{"header":{"parameterUnit":"m.s-1","parameterCategory":1,"la1":30.2991,"la2":30.254,"lo1":-89.0895,"lo2":-89.0444,"dy":0.0017,"dx":0.0017,"nx":28,"ny":28,"refTime":"2026-02-07T09:00:00:Z","depth":0,"parameterNumber":3,"parameterNumberName":"V-component_of_WINDS"},"data":[0,0,0,0,0,0,0,0,0,0,0,0,0,0,0,0,0,0,0,0,0,0,0,0,0,0,0,0,0,0,0,0,0,0,0,0,0,0,0,0,0,0,0,0,0,0,0,0,0,0,0,0,0,0,0,0,0,0,-2.9862,-2.9863,0,-2.9883,-2.9883,-2.9884,-2.988,-2.988,-2.988,-2.9879,-2.9897,-2.9898,-2.9898,0,0,0,0,0,0,0,0,0,0,0,0,0,-2.9818,-2.9819,-2.9862,-2.9863,-2.9863,-2.9883,-2.9883,-2.9884,-2.988,-2.988,-2.988,-2.9879,-2.9897,-2.9898,-2.9898,0,0,0,0,0,0,0,0,0,0,0,0,0,-2.9838,-2.9819,-2.9862,-2.9864,-2.9864,-2.9883,-2.9883,-2.9884,-2.988,-2.988,-2.9879,-2.9879,-2.9896,-2.9897,-2.9899,-2.9916,0,0,-2.9902,-2.9903,0,0,0,0,0,0,0,0,-2.9837,-2.984,-2.9863,-2.9864,-2.9864,-2.9879,-2.9874,-2.9894,-2.9881,-2.9874,-2.9879,-2.9879,-2.9891,-2.9893,-2.9897,-2.9917,-2.9918,-2.9902,-2.9903,-2.9904,-2.9904,0,0,0,0,0,0,0,-2.9836,-2.9839,-2.987,-2.9864,-2.9864,-2.9863,-2.9865,-2.9878,-2.9885,-2.9875,-2.9874,-2.9877,-2.9891,-2.9896,-2.9898,-2.9918,-2.9902,-2.9903,-2.9904,-2.9905,-2.9957,-2.9957,0,0,0,0,0,0,-2.9834,-2.9838,-2.987,-2.9871,-2.9849,-2.9864,-2.9867,-2.9874,-2.9885,-2.9886,-2.9878,-2.9877,-2.9895,-2.9896,-2.9898,-2.9922,-2.9904,-2.9905,-2.9905,-2.9956,-2.9957,-2.9958,0,0,0,0,0,0,-2.9833,-2.9837,-2.9869,-2.9854,-2.9858,-2.9865,-2.9874,-2.9875,-2.988,-2.9887,-2.9888,-2.9882,-2.9894,-2.9897,-2.9913,-2.9923,-2.9905,-2.9906,-2.9955,-2.9956,-2.9957,-2.9969,0,0,0,0,0,0,-2.9832,-2.9837,-2.9843,-2.9855,-2.9859,-2.9883,-2.9875,-2.9876,-2.9883,-2.9882,-2.9891,-2.9892,-2.9894,-2.9911,-2.9914,-2.9924,-2.9907,-2.9954,-2.9956,-2.9957,-2.9967,-2.997,-2.9972,0,0,0,0,0,-2.983,-2.9844,-2.9844,-2.9848,-2.9868,-2.9884,-2.9886,-2.9889,-2.9884,-2.9891,-2.9896,-2.9892,-2.9921,-2.9913,-2.9916,-2.9927,-2.9954,-2.9955,-2.9957,-2.9966,-2.9969,-2.9972,0,0,0,0,0,0,-2.9831,-2.9845,-2.9845,-2.9863,-2.9873,-2.9883,-2.9892,-2.9892,-2.9902,-2.99,-2.9902,-2.9904,-2.9921,-2.9925,-2.9916,-2.9946,-2.9937,-2.9939,-2.9943,-2.9946,-2.9948,-2.9947,-2.9908,0,0,0,0,0,-2.9834,-2.9847,-2.9858,-2.9873,-2.9878,-2.9884,-2.9891,-2.9893,-2.9902,-2.9906,-2.9912,-2.992,-2.9932,-2.9939,-2.9949,-2.9968,-2.9971,-2.9977,-2.9979,-2.9981,-2.9983,-2.9997,-3.0,-2.9963,-2.9963,-2.9963,0,0,-2.9839,-2.9849,-2.9856,-2.9873,-2.9881,-2.9894,-2.9888,-2.9901,-2.9911,-2.9907,-2.9924,-2.9929,-2.9938,-2.9957,-2.9965,-2.9961,-2.9995,-2.9983,-2.9985,-2.9986,-2.9999,-3.0002,-3.0005,-2.9964,-2.9963,-2.9963,0,0,-2.9856,-2.9863,-2.9878,-2.9887,-2.99,-2.9904,-2.9908,-2.992,-2.9924,-2.9941,-2.994,-2.9951,-2.997,-2.9978,-2.9984,-3.0008,-3.0006,-3.0011,-3.0023,-3.0036,-3.0039,-3.0042,-3.0052,-3.0056,-3.0013,-3.0013,-3.0013,0,-2.986,-2.988,-2.9885,-2.99,-2.9909,-2.9909,-2.9925,-2.9932,-2.9947,-2.9953,-2.9948,-2.9974,-2.998,-3.0002,-3.0009,-3.0013,-3.0018,-3.001,-3.0038,-3.0041,-3.0044,-3.0054,-3.0058,-3.0014,-3.0013,-3.0013,-3.0013,0,-2.9886,-2.9901,-2.9911,-2.9929,-2.9938,-2.9953,-2.9961,-2.997,-2.9971,-2.9977,-2.9996,-3.0004,-3.0018,-3.0023,-3.0023,-3.0046,-3.0043,-3.0038,-3.0029,-3.0048,-3.0058,-3.0062,-3.0015,-3.0014,-3.0014,-3.0014,0,0,-2.9901,-2.9925,-2.9928,-2.9938,-2.9954,-2.9965,-2.9981,-2.9996,-3.0005,-3.0016,-3.003,-3.0048,-3.0045,-3.0053,-3.0054,-3.0065,-3.0087,-3.006,-3.006,-3.0066,-3.0115,-3.012,-3.0124,-3.0086,-3.0086,-3.0087,-3.0115,0,-2.992,-2.9951,-2.9957,-2.9983,-2.9998,-3.0,-3.0014,-3.0025,-3.0032,-3.0045,-3.0051,-3.0065,-3.0059,-3.0064,-3.0075,-3.0082,-3.0097,-3.008,-3.0099,-3.01,-3.0098,-3.0129,-3.0133,-3.0159,-3.0119,-3.0119,-3.012,0,-2.9946,-2.9961,-2.999,-3.0007,-3.0014,-3.0026,-3.0043,-3.0056,-3.0069,-3.0073,-3.0084,-3.0085,-3.0103,-3.0093,-3.0117,-3.0106,-3.0114,-3.0119,-3.012,-3.0123,-3.0112,-3.0134,-3.0167,-3.0172,-3.0125,-3.0125,-3.0124,0,-2.9957,-2.9984,-3.0006,-3.0013,-3.0034,-3.0043,-3.0052,-3.0065,-3.0076,-3.009,-3.0097,-3.0112,-3.0121,-3.0133,-3.0138,-3.013,-3.0164,-3.0153,-3.0168,-3.0168,-3.0175,-3.0175,-3.0212,-3.0178,-3.0178,-3.0178,-3.0178,0,-2.9978,-2.9996,-3.0012,-3.0025,-3.0045,-3.0053,-3.0073,-3.0081,-3.0094,-3.0109,-3.0111,-3.0125,-3.0131,-3.0146,-3.015,-3.0172,-3.0175,-3.0179,-3.018,-3.018,-3.018,-3.0186,-3.0185,-3.0179,-3.0179,-3.0179,-3.0179,0,-2.9993,-3.0005,-3.0029,-3.0048,-3.0053,-3.0068,-3.0084,-3.0097,-3.0105,-3.0124,-3.0129,-3.0141,-3.0159,-3.0166,-3.0187,-3.019,-3.0216,-3.0214,-3.0212,-3.0213,-3.0228,-3.0227,-3.0272,-3.0279,-3.0239,-3.0239,-3.0239,0,-3.0007,-3.0021,-3.0043,-3.0055,-3.0065,-3.0083,-3.0095,-3.0104,-3.0116,-3.0135,-3.0146,-3.0165,-3.0181,-3.021,-3.022,-3.0237,-3.0237,-3.0252,-3.0239,-3.024,-3.024,-3.024,-3.0242,-3.0254,-3.0254,-3.0255,-3.0255,0,-3.003,-3.0036,-3.0054,-3.0075,-3.009,-3.0106,-3.0121,-3.0131,-3.0142,-3.0156,-3.0176,-3.0189,-3.0213,-3.0232,-3.0251,-3.0259,-3.026,-3.0259,-3.0264,-3.0264,-3.0263,-3.0266,-3.022,-3.0258,-3.0258,-3.0257,-3.0257,-3.0257,-3.0045,-3.006,-3.0079,-3.01,-3.0114,-3.013,-3.0145,-3.0156,-3.0174,-3.0196,-3.02,-3.0222,-3.0238,-3.0264,-3.0274,-3.0291,-3.0287,-3.0293,-3.0295,-3.0297,-3.03,-3.026,-3.0294,-3.0294,-3.0294,-3.0294,-3.0294,0,-3.007,-3.0084,-3.0103,-3.0128,-3.0145,-3.0146,-3.0165,-3.0179,-3.02,-3.0216,-3.0233,-3.0258,-3.0277,-3.0291,-3.0311,-3.0323,-3.0323,-3.0328,-3.0327,-3.033,-3.03,-3.0296,-3.0327,-3.0327,-3.0327,-3.0327,-3.0327,-3.0327,-3.0085,-3.0111,-3.012,-3.0153,-3.0167,-3.0191,-3.0202,-3.0217,-3.0231,-3.0259,-3.0277,-3.0287,-3.0302,-3.0324,-3.0343,-3.0346,-3.0354,-3.0359,-3.0363,-3.0335,-3.0331,-3.0328,-3.0324,-3.0361,-3.0361,-3.0391,-3.0391,-3.0391]}]]